Reading, PA

12:43 PM EST on December 05, 2019 (GMT -0500)
Reading Regional-Spaatz

Weather History for KRDG - November, 2019

Change the Weather History Date:

Thursday, November 14, 2019

  Actual Average Record
Temperature  
Mean Temperature 34 °F 45 °F  
Max Temperature 42 °F 54 °F 74 °F (1955)
Min Temperature 25 °F 35 °F 16 °F (1986)
Degree Days  
Heating Degree Days 32 20  
Month to date heating degree days 339 254  
Since 1 July heating degree days 578 692  
Cooling Degree Days 0 0  
Month to date cooling degree days 0 0  
Year to date cooling degree days 1239 896  
Moisture  
Dew Point 20 °F    
Average Humidity 58    
Maximum Humidity 75    
Minimum Humidity 40    
Precipitation  
Precipitation 0.00 in 0.09 in 1.32 in (1972)
Month to date precipitation 0.43 1.50  
Year to date precipitation 49.19 38.02  
Sea Level Pressure  
Sea Level Pressure 30.37 in    
Wind  
Wind Speed 5 mph ()    
Max Wind Speed 16 mph    
Max Gust Speed 21 mph    
Visibility 10.0 miles    
Events      
T = Trace of Precipitation, MM = Missing Value Source: Averaged Metar Reports

Daily Weather History Graph

Daily Weather History Graph

Search for Another Location

Airport or City:

Astronomy

Nov. 14, 2019 Rise Set
Actual Time 6:48 AM EST 4:47 PM EST
Civil Twilight 6:19 AM EST 5:16 PM EST
Nautical Twilight 5:46 AM EST 5:49 PM EST
Astronomical Twilight 5:14 AM EST 6:21 PM EST
Moon 6:31 PM EST (11/14) 8:41 AM EST (11/14)
Length of Visible Light 10h 57m
Length of Day
9h 59m
Waning Gibbous, 95% of the Moon is Illuminated
Nov 14
Waning Gibbous
Nov 19
Last Quarter
Nov 26
New
Dec 4
First Quarter
Dec 12
Full

Hourly Weather History & Observations

Time (EST) Temp. Windchill Dew Point Humidity Pressure Visibility Wind Dir Wind Speed Gust Speed Precip Events Conditions
12:54 AM 27.0 °F 21.6 °F 18.0 °F 69% 30.43 in 10.0 mi SSE 4.6 mph - N/A   Clear
1:54 AM 28.0 °F 20.0 °F 17.1 °F 63% 30.42 in 10.0 mi SSE 8.1 mph - N/A   Clear
2:54 AM 26.1 °F 19.4 °F 17.1 °F 69% 30.42 in 10.0 mi South 5.8 mph - N/A   Clear
3:54 AM 26.1 °F 19.4 °F 17.1 °F 69% 30.41 in 10.0 mi South 5.8 mph - N/A   Clear
4:54 AM 26.1 °F 19.4 °F 17.1 °F 69% 30.41 in 10.0 mi South 5.8 mph - N/A   Clear
5:54 AM 26.1 °F 18.4 °F 16.0 °F 66% 30.42 in 10.0 mi SSE 6.9 mph - N/A   Clear
6:54 AM 25.0 °F 20.7 °F 16.0 °F 69% 30.43 in 10.0 mi SW 3.5 mph - N/A   Clear
7:54 AM 28.9 °F 22.8 °F 18.0 °F 64% 30.44 in 10.0 mi SSE 5.8 mph - N/A   Clear
8:54 AM 30.9 °F 26.2 °F 19.0 °F 61% 30.44 in 10.0 mi South 4.6 mph - N/A   Clear
9:54 AM 33.1 °F 28.7 °F 21.0 °F 61% 30.43 in 10.0 mi South 4.6 mph - N/A   Mostly Cloudy
10:54 AM 36.0 °F 29.6 °F 23.0 °F 59% 30.41 in 10.0 mi SSE 8.1 mph - N/A   Clear
11:54 AM 41.0 °F 37.1 °F 23.0 °F 49% 30.38 in 10.0 mi SW 5.8 mph 18.4 mph N/A   Clear
12:54 PM 41.0 °F 33.1 °F 19.0 °F 41% 30.35 in 10.0 mi SSW 15.0 mph - N/A   Clear
1:54 PM 41.0 °F 35.2 °F 19.0 °F 41% 30.34 in 10.0 mi SSW 9.2 mph - N/A   Clear
2:54 PM 41.0 °F 37.1 °F 19.0 °F 41% 30.33 in 10.0 mi SSW 5.8 mph - N/A   Clear
3:54 PM 39.9 °F 35.8 °F 18.0 °F 41% 30.32 in 10.0 mi South 5.8 mph - N/A   Clear
4:54 PM 39.0 °F 35.7 °F 18.0 °F 43% 30.32 in 10.0 mi South 4.6 mph - N/A   Clear
5:54 PM 37.9 °F 34.4 °F 19.9 °F 48% 30.32 in 10.0 mi South 4.6 mph - N/A   Clear
6:54 PM 39.0 °F 34.8 °F 21.9 °F 50% 30.32 in 10.0 mi South 5.8 mph - N/A   Clear
7:54 PM 37.9 °F - 24.1 °F 57% 30.32 in 10.0 mi Calm Calm - N/A   Clear
8:54 PM 36.0 °F 33.3 °F 23.0 °F 59% 30.32 in 10.0 mi WNW 3.5 mph - N/A   Clear
9:54 PM 36.0 °F 33.3 °F 23.0 °F 59% 30.33 in 10.0 mi SSW 3.5 mph - N/A   Clear
10:54 PM 36.0 °F - 21.9 °F 57% 30.33 in 10.0 mi Calm Calm - N/A   Partly Cloudy
11:54 PM 32.0 °F - 25.0 °F 75% 30.31 in 10.0 mi Calm Calm - N/A   Clear